STARLINK-34213 (64148 NORAD) Tracking and Keplerian Element Data

This shows tracking and keplerian element data for the satellite.

Feedback or suggestion? Click here.




ElementValue
Catalog64148
NameSTARLINK-34213
Epoch Orbit3132
Epoch Day354.0601061
Epoch Year2025
RAAN42.9777
Inclination97.6053
Eccentricity9.33E-05
Argument of Perigee120.4884
Mean Anonmoly239.6435
Mean Motion15.05659162
Decay Rate4.238E-05
L11 64148U 25112C 25354.06010610 .00004238 00000+0 29764-3 0 9994
L22 64148 97.6053 42.9777 0000933 120.4884 239.6435 15.05659162 31324



Live tracking and technical data element details for STARLINK-34213 (NORAD 64148). STARLINK-34213 can be tracked NOW for your location showing map with azimuth and elevation plus other details from your city location.







IsCatalogInMostPopularTable: catalog: 64148, numindb: 5
Update: records affected: 1



GetName: 64148 STARLINK-34213

Hit Count: updated at: Tue, 17 Feb 2026 12:11:23 GMT